Regional Weather Roundup
Issued by NWS

Home | Current Version | Previous Version | Graphics & Text | Print | Product List | Glossary On
Versions: 1 2 3 4 5 6 7 8 9 10 11 12 13 14 15 16 17 18 19 20 21 22 23 24 25 26 27 28 29 30 31 32 33 34 35 36 37 38 39 40 41 42 43 44 45 46 47 48 49 50
000
ASUS45 KPSR 230210
RWRAZ

ARIZONA REGIONAL HOURLY WEATHER ROUNDUP
NATIONAL WEATHER SERVICE PHOENIX AZ
700 PM MST MON SEP 22 2014

NOTE: FAIR INDICATES FEW OR NO CLOUDS BELOW 12,000 FEET WITH NO
SIGNIFICANT WEATHER AND/OR OBSTRUCTIONS TO VISIBILITY.

AZZ001>003-036-230300-
NORTHWEST ARIZONA

CITY           SKY/WX    TMP DP  RH WIND       PRES   REMARKS
BULLHEAD CITY  CLEAR     95  37  13 S3        29.84S
KINGMAN        CLEAR     77  36  22 SW7       30.05R
$$

AZZ004>008-015-016-018-230300-
NORTH CENTRAL ARIZONA

CITY           SKY/WX    TMP DP  RH WIND       PRES   REMARKS
GRAND CANYON   PTCLDY    65  44  46 W3        30.26S
PRESCOTT       CLEAR     73  41  31 W9        30.16S
FLAGSTAFF      PTCLDY    62  48  60 CALM      30.30S
PAYSON         CLEAR     75  55  50 W5        30.18S
PAGE           CLEAR     83  40  21 N5        30.09R
$$

AZZ009>014-017-230300-
NORTHEAST ARIZONA

CITY           SKY/WX    TMP DP  RH WIND       PRES   REMARKS
WINSLOW        CLEAR     76  46  34 W8        30.14R
SAINT JOHNS    PTCLDY    68  61  78 S5        30.19S
SHOW LOW       PTCLDY    66  54  63 SW6       30.28R
$$

AZZ023-230300-
GREATER PHOENIX AREA

CITY           SKY/WX    TMP DP  RH WIND       PRES   REMARKS
PHOENIX        PTCLDY    96  44  16 W8        29.85S
BUCKEYE          N/A     86  55  35 E3        29.87R
GLENDALE       PTCLDY    93  48  21 S5        29.88R
LUKE AFB       CLEAR     94  50  22 SW5       29.86R
DEER VALLEY    CLEAR     93  46  19 W9        29.88S
SCOTTSDALE     CLEAR     93  50  23 SW3       29.90R
MESA-FALCON    PTCLDY    91  52  25 W8        29.87
MESA-GATEWAY   PTCLDY    93  54  26 W6        29.90
CHANDLER       PTCLDY    93  54  26 W9        29.88R
$$

AZZ027-028-230300-
SOUTHWEST MARICOPA COUNTY AND PINAL COUNTY

CITY           SKY/WX    TMP DP  RH WIND       PRES   REMARKS
CASA GRANDE    CLEAR     91  52  25 NW5       29.90S
GILA BEND      CLEAR     95  43  16 NW3       29.87R
$$

AZZ503-504-507>509-230300-
SOUTHEAST ARIZONA

CITY           SKY/WX    TMP DP  RH WIND       PRES   REMARKS
TUCSON         CLEAR     89  56  32 NW9       29.99R
DAVIS-MONTHAN  CLEAR     87  57  35 N14       29.98R
RYAN FIELD       N/A     90  57  33 NW7       29.98R
NOGALES        CLOUDY    78  64  61 NE8       30.08R
SIERRA VISTA   MOCLDY    75  64  69 W5        30.14R
DOUGLAS        CLOUDY    70  64  81 NE24G33   30.12R THUNDER
SAFFORD        PTCLDY    82  67  60 CALM      30.01R
$$

AZZ020-021-025-026-031-230300-
SOUTHWEST ARIZONA

CITY           SKY/WX    TMP DP  RH WIND       PRES   REMARKS
YUMA           CLEAR     97  55  24 W10       29.81R
$$

CAZ031-033-041-043-047-048-061-230300-
SOUTHERN CALIFORNIA

CITY           SKY/WX    TMP DP  RH WIND       PRES   REMARKS
DOWNTOWN L.A.  CLEAR     72  62  71 W7        29.90S
L.A. AIRPORT   PTCLDY    69  63  81 W10       29.92S
SAN DIEGO      PTCLDY    72  63  73 NW8       29.92S
BURBANK        CLEAR     77  58  51 S6        29.90S
ONTARIO        CLEAR     82  57  42 W10       29.91R
RIVERSIDE      CLEAR     81  60  48 W7        29.91R
PALM SPRINGS   CLEAR     96  45  17 E7        29.84R
EL CENTRO NAS  PTCLDY    95  53  24 NE6       29.78R
IMPERIAL       CLEAR     98  53  22 NE5       29.78R
BLYTHE         CLEAR     97  42  15 CALM      29.81R
NEEDLES        CLEAR     96  33  11 W8        29.85R
$$

NVZ020-UTZ003-230300-
SOUTHERN NEVADA-UTAH

CITY           SKY/WX    TMP DP  RH WIND       PRES   REMARKS
LAS VEGAS      CLEAR     91  40  16 SE7       29.89R
SALT LAKE CITY CLOUDY    71  52  50 N6        30.09S
$$

NMZ009-TXZ055-230300-
NEW MEXICO-WEST TEXAS

CITY           SKY/WX    TMP DP  RH WIND       PRES   REMARKS
ALBUQUERQUE    CLOUDY    69  58  67 SW8       30.24R
EL PASO        CLOUDY    70  66  87 E5        30.17R
$$


........................KEY........................
SKY/WX - SKY CONDITION/WEATHER
TMP    - TEMPERATURE IN FAHRENHEIT
DP     - DEW POINT IN FAHRENHEIT
RH     - RELATIVE HUMIDITY IN PERCENT
WIND   - DIRECTION AND SPEED IN MILES PER HOUR (MPH)
VRB    - VARIABLE WIND DIRECTION
PRES   - MEAN SEA LEVEL PRESSURE IN INCHES OF MERCURY
         F - FALLING PRESSURE   R - RISING PRESSURE
         S - STEADY PRESSURE
VSB    - VISIBILITY IN MILES
HX     - HEAT INDEX IN FAHRENHEIT
WCI    - WIND CHILL INDEX IN FAHRENHEIT
TC     - TEMPERATURE IN CELSIUS WHICH IS ALSO KNOWN AS
         TEMPERATURE IN CENTIGRADE
AFB    - AIR FORCE BASE
         LUKE AFB IS LUKE AIR FORCE BASE
         DAVIS-MONTHAN IS DAVIS-MONTHAN AIR FORCE BASE
NAS    - NAVAL AIR STATION
         EL CENTRO NAS IS EL CENTRO NAVAL AIR STATION
N/A    - NOT AVAILABLE


USA.gov is the U.S. government's official web portal to all federal, state and local government web resources and services.